Location: Chervonnoye
(48.6000°N, 34.4000°E)
Time: 18:51:34
(UTC+00:00)

Cosmos 2369 Rocket - Visible Passes

Search period start: 13 April 2021 00:00
Search period end: 23 April 2021 00:00
Orbit: 829 x 852 km, 71.0° (Epoch: 12 April)

Date Brightness Start Highest point End Pass type
(mag) Time Alt. Az. Time Alt. Az. Time Alt. Az.
13 Apr 4.1 02:13:26 10° SSE 02:18:16 31° ESE 02:23:09 10° NE visible
14 Apr 4.1 01:58:10 10° SSE 02:02:55 30° ESE 02:07:43 10° NE visible
15 Apr 4.1 01:42:54 10° SSE 01:47:34 28° ESE 01:52:16 10° NE visible
16 Apr 4.1 01:27:39 10° SSE 01:32:13 27° ESE 01:36:49 10° NE visible
17 Apr 4.2 01:12:25 10° SSE 01:16:53 25° ESE 01:21:22 10° NE visible
18 Apr 4.2 00:57:10 10° SSE 01:01:31 24° ESE 01:05:54 10° NE visible
19 Apr 4.2 00:41:57 10° SSE 00:46:11 23° ESE 00:50:27 10° NE visible
20 Apr 4.2 00:26:43 10° SSE 00:30:50 21° E 00:34:59 10° NE visible
21 Apr 4.3 00:11:31 10° SE 00:15:30 20° E 00:19:30 10° NE visible
21 Apr 2.2 01:53:21 10° SW 01:58:56 72° WNW 02:04:34 10° NNE visible
21 Apr 4.3 23:56:20 10° SE 00:00:10 19° E 00:04:01 10° NE visible
22 Apr 2.2 01:37:56 10° SSW 01:43:32 75° WNW 01:49:11 10° NNE visible
22 Apr 4.3 23:41:17 10° SE 23:44:50 18° E 23:48:31 10° ENE visible
